TimeEST,TemperatureF,Dew PointF,Humidity,Sea Level PressureIn,VisibilityMPH,Wind Direction,Wind SpeedMPH,Gust SpeedMPH,PrecipitationIn,Events,Conditions,WindDirDegrees,DateUTC
12:56 AM,37.0,33.1,86,30.35,10.0,Calm,Calm,-,N/A,,Partly Cloudy,0,2012-12-01 05:56:00
1:56 AM,36.0,32.0,86,30.36,8.0,Calm,Calm,-,N/A,,Clear,0,2012-12-01 06:56:00
2:56 AM,36.0,32.0,86,30.36,8.0,Calm,Calm,-,N/A,,Partly Cloudy,0,2012-12-01 07:56:00
3:56 AM,35.1,30.9,85,30.36,7.0,Calm,Calm,-,N/A,,Clear,0,2012-12-01 08:56:00
4:56 AM,34.0,30.9,89,30.36,7.0,Calm,Calm,-,N/A,,Clear,0,2012-12-01 09:56:00
5:56 AM,33.1,30.0,89,30.37,8.0,Calm,Calm,-,N/A,,Clear,0,2012-12-01 10:56:00
6:56 AM,34.0,30.0,85,30.38,7.0,Calm,Calm,-,N/A,Fog,Patches of Fog,0,2012-12-01 11:56:00
7:56 AM,36.0,33.1,89,30.40,4.0,Calm,Calm,-,N/A,,Scattered Clouds,0,2012-12-01 12:56:00
8:56 AM,46.9,39.9,77,30.42,7.0,Calm,Calm,-,N/A,,Scattered Clouds,0,2012-12-01 13:56:00
9:56 AM,52.0,41.0,66,30.43,9.0,Calm,Calm,-,N/A,,Scattered Clouds,0,2012-12-01 14:56:00
10:56 AM,57.9,37.9,47,30.41,10.0,Calm,Calm,-,N/A,,Scattered Clouds,0,2012-12-01 15:56:00
11:56 AM,59.0,35.1,41,30.39,10.0,East,8.1,-,N/A,,Mostly Cloudy,90,2012-12-01 16:56:00
12:56 PM,59.0,36.0,42,30.36,10.0,ESE,6.9,-,N/A,,Scattered Clouds,120,2012-12-01 17:56:00
1:56 PM,59.0,36.0,42,30.36,10.0,East,9.2,-,N/A,,Scattered Clouds,100,2012-12-01 18:56:00
2:56 PM,57.0,37.9,49,30.36,10.0,East,5.8,-,N/A,,Clear,100,2012-12-01 19:56:00
3:56 PM,53.1,39.0,59,30.36,10.0,ESE,5.8,-,N/A,,Clear,110,2012-12-01 20:56:00
4:56 PM,48.0,37.9,68,30.36,10.0,East,3.5,-,N/A,,Scattered Clouds,80,2012-12-01 21:56:00
5:56 PM,45.0,37.9,76,30.37,10.0,Calm,Calm,-,N/A,,Scattered Clouds,0,2012-12-01 22:56:00
6:56 PM,44.1,37.9,79,30.39,10.0,Calm,Calm,-,N/A,,Partly Cloudy,0,2012-12-01 23:56:00
7:56 PM,43.0,37.0,80,30.40,9.0,SW,3.5,-,N/A,,Partly Cloudy,230,2012-12-02 00:56:00
8:56 PM,42.1,37.9,85,30.40,8.0,Calm,Calm,-,N/A,,Partly Cloudy,0,2012-12-02 01:56:00
9:56 PM,39.9,36.0,86,30.41,7.0,Calm,Calm,-,N/A,,Partly Cloudy,0,2012-12-02 02:56:00
10:56 PM,39.0,35.1,86,30.40,8.0,Calm,Calm,-,N/A,,Clear,0,2012-12-02 03:56:00
11:56 PM,37.9,35.1,89,30.40,8.0,WSW,3.5,-,N/A,,Partly Cloudy,250,2012-12-02 04:56:00